Simultaneous Nadir Overpasses (SNOs) Predictions

Prediction of SNOs between NOAA-15 and METOP-C Satellite Orbit:

Table of predicted SNOs for the next 14.0 days since TLE Epoch: 9/9/2023
Index Date (NOAA-15) Time (NOAA-15) Lat,Lon (NOAA-15) SZA (NOAA-15 ) Date (METOP-C) Time (METOP-C) Lat,Lon (METOP-C) SZA (METOP-C ) Distance(km) Time Diff (sec)
1 09/17/2023 06:41:05 81.09, 117.75 80.77 09/17/2023 06:39:51 81.09, 117.82 80.74 1.42 74
2 09/17/2023 07:31:38 -81.09, -74.89 99.22 09/17/2023 07:30:31 -81.09, -74.80 99.24 1.45 67
3 09/17/2023 08:22:05 81.08, 92.76 80.81 09/17/2023 08:21:12 81.10, 92.66 80.79 2.37 53
4 09/17/2023 09:12:39 -81.10,-100.23 99.20 09/17/2023 09:11:53 -81.08,-100.33 99.24 2.34 46
5 09/17/2023 10:03:07 81.10, 67.04 80.81 09/17/2023 10:02:34 81.09, 67.13 80.80 2.21 33
6 09/17/2023 10:53:40 -81.10,-125.58 99.18 09/17/2023 10:53:14 -81.09,-125.49 99.19 1.99 26
7 09/17/2023 11:44:07 81.09, 42.06 80.86 09/17/2023 11:43:55 81.10, 41.97 80.85 1.59 12
8 09/17/2023 12:34:40 -81.09,-150.56 99.13 09/17/2023 12:34:35 -81.10,-150.65 99.14 1.78 5
9 09/17/2023 13:25:08 81.09, 16.70 80.88 09/17/2023 13:25:16 81.10, 16.81 80.90 2.03 8
10 09/17/2023 14:15:41 -81.09,-175.91 99.11 09/17/2023 14:15:56 -81.10,-175.81 99.09 2.05 15
11 09/17/2023 15:06:08 81.10, -8.65 80.90 09/17/2023 15:06:37 81.09, -8.72 80.90 1.33 29
12 09/17/2023 15:56:41 -81.10, 158.74 99.09 09/17/2023 15:57:17 -81.10, 158.66 99.09 1.46 36
13 09/17/2023 16:47:09 81.10, -34.01 80.92 09/17/2023 16:47:58 81.10, -33.88 80.95 2.12 49
14 09/17/2023 17:37:42 -81.10, 133.39 99.07 09/17/2023 17:38:38 -81.10, 133.50 99.03 1.82 56
15 09/17/2023 18:28:10 81.11, -59.36 80.94 09/17/2023 18:29:20 81.09, -59.42 80.95 1.82 70



Historial Predications of SNOs between NOAA-15 and METOP-C
